DW5244 Weather Reports


time (UTC)temp
C
wind
direction
speed
KPH
gust
KPH
rain 1hr
cm
rain 24hr
cm
rain mn
cm
humidity
%
barometer
mb
20260509143034 22 132 1.6 6.4 0.00 0.00 0.00 35 1017.6
20260509141529 20 360 4.8 8.0 0.00 0.00 0.00 39 1017.7
20260509140024 19 33 4.8 8.0 0.00 0.00 0.00 42 1017.6
20260509134522 17 86 8.0 12.9 0.00 0.00 0.00 44 1017.7
20260509133017 17 316 4.8 14.5 0.00 0.00 0.00 43 1017.6
20260509131512 15 308 14.5 19.3 0.00 0.00 0.00 45 1017.4
20260509130025 15 307 4.8 14.5 0.00 0.00 0.00 48 1017.4
20260509124506 13 312 12.9 19.3 0.00 0.00 0.00 49 1017.1
20260509123001 13 327 6.4 17.7 0.00 0.00 0.00 49 1017.2
20260509121557 13 316 14.5 20.9 0.00 0.00 0.00 50 1017.0
20260509120056 13 323 9.7 16.1 0.00 0.00 0.00 50 1016.8
20260509114625 13 317 4.8 19.3 0.00 0.00 0.00 51 1016.8
20260509113105 13 329 8.0 14.5 0.00 0.00 0.00 51 1016.6
20260509111549 13 331 12.9 19.3 0.00 0.00 0.00 51 1016.2
20260509110057 13 340 14.5 17.7 0.00 0.00 0.00 51 1016.3
20260509104546 13 350 6.4 25.7 0.00 0.00 0.00 50 1016.3
20260509103047 14 300 16.1 20.9 0.00 0.00 0.00 50 1016.1
20260509101552 14 334 14.5 22.5 0.00 0.00 0.00 50 1015.8
20260509100039 14 360 4.8 17.7 0.00 0.00 0.00 49 1015.7
20260509094535 13 360 6.4 9.7 0.00 0.00 0.00 51 1015.6
20260509093032 14 360 4.8 12.9 0.00 0.00 0.00 49 1015.6
20260509091531 15 360 8.0 16.1 0.00 0.00 0.00 46 1015.6
20260509090029 15 360 11.3 20.9 0.00 0.00 0.00 46 1015.6
20260509084528 15 360 8.0 19.3 0.00 0.00 0.00 46 1015.5
20260509083024 15 360 16.1 19.3 0.00 0.00 0.00 45 1015.5
20260509081522 15 360 4.8 20.9 0.00 0.00 0.00 44 1015.6
20260509080019 15 360 11.3 17.7 0.00 0.00 0.00 44 1015.6
20260509074516 16 360 9.7 17.7 0.00 0.00 0.00 43 1015.6
20260509073013 16 360 14.5 20.9 0.00 0.00 0.00 43 1015.7
20260509071509 16 360 9.7 19.3 0.00 0.00 0.00 42 1015.7
20260509070008 16 360 8.0 17.7 0.00 0.00 0.00 42 1015.8
20260509064505 17 360 4.8 14.5 0.00 0.00 0.00 42 1015.8
20260509063006 16 360 9.7 14.5 0.00 0.00 0.00 42 1016.0
20260509061508 17 360 4.8 16.1 0.00 0.00 0.00 43 1016.0
20260509054611 17 360 6.4 14.5 0.00 0.00 0.00 39 1015.9
20260509053104 17 360 6.4 14.5 0.00 0.00 0.00 39 1016.0
20260509051558 18 360 6.4 9.7 0.00 0.00 0.00 38 1016.0
20260509050052 18 360 8.0 20.9 0.00 0.00 0.00 36 1016.1
20260509044602 18 360 4.8 9.7 0.00 0.00 0.00 37 1016.0
20260509043048 19 360 3.2 8.0 0.00 0.00 0.00 36 1016.0
20260509041547 18 360 1.6 9.7 0.00 0.00 0.00 37 1015.9
20260509040046 20 360 4.8 14.5 0.00 0.00 0.00 36 1015.6
20260509034546 20 360 6.4 16.1 0.00 0.00 0.00 36 1015.3
20260509033048 20 360 9.7 17.7 0.00 0.00 0.00 35 1015.1
20260509031554 20 360 8.0 16.1 0.00 0.00 0.00 33 1014.8
20260509030044 20 360 6.4 19.3 0.00 0.00 0.00 34 1014.7
20260509024543 21 360 4.8 17.7 0.00 0.00 0.00 33 1014.6
20260509023043 21 360 14.5 22.5 0.00 0.00 0.00 32 1014.3
20260509021543 21 360 11.3 16.1 0.00 0.00 0.00 31 1014.3
20260509020045 22 360 8.0 20.9 0.00 0.00 0.00 29 1014.2
20260509014543 23 355 14.5 19.3 0.00 0.00 0.00 28 1014.1
20260509013041 23 355 6.4 14.5 0.00 0.00 0.00 26 1014.3
20260509011540 23 109 4.8 11.3 0.00 0.00 0.00 27 1014.0
20260509010045 23 91 16.1 22.5 0.00 0.00 0.00 27 1014.0
20260509004541 23 355 16.1 24.1 0.00 0.00 0.00 27 1014.1
20260509003045 23 346 25.7 33.8 0.00 0.00 0.00 27 1014.1
20260509001538 23 349 33.8 51.5 0.00 0.00 0.00 28 1014.3
20260509000040 23 350 32.2 61.2 0.00 0.00 0.00 28 1014.2
20260508234536 23 360 45.1 77.2 0.00 0.00 0.00 30 1013.7
20260508233036 23 336 41.8 62.8 0.00 0.00 0.00 29 1013.6
20260508231535 22 331 30.6 49.9 0.00 0.00 0.00 35 1013.3
20260508230041 22 340 27.4 48.3 0.00 0.00 0.00 40 1013.5
20260508224536 23 350 41.8 69.2 0.00 0.00 0.00 35 1013.3
20260508223035 26 344 62.8 78.9 0.00 0.00 0.00 30 1012.2
20260508221531 27 360 33.8 45.1 0.00 0.00 0.00 27 1011.9
20260508220104 28 360 30.6 45.1 0.00 0.00 0.00 27 1011.7
20260508214530 30 345 19.3 29.0 0.00 0.00 0.00 22 1011.9
20260508213035 30 331 29.0 37.0 0.00 0.00 0.00 22 1011.7
20260508211530 30 265 6.4 27.4 0.00 0.00 0.00 12 1012.2
20260508210028 31 332 6.4 20.9 0.00 0.00 0.00 15 1012.0
20260508204523 30 261 4.8 22.5 0.00 0.00 0.00 16 1012.1
20260508203021 30 360 16.1 30.6 0.00 0.00 0.00 17 1012.1
20260508201525 30 360 12.9 24.1 0.00 0.00 0.00 20 1012.4
20260508200018 30 301 12.9 29.0 0.00 0.00 0.00 22 1012.4
20260508194515 30 360 16.1 27.4 0.00 0.00 0.00 24 1012.3
20260508193012 29 252 20.9 33.8 0.00 0.00 0.00 26 1012.4
20260508191515 28 360 20.9 32.2 0.00 0.00 0.00 28 1012.6
20260508190011 28 252 22.5 35.4 0.00 0.00 0.00 32 1012.9
20260508184504 27 360 8.0 25.7 0.00 0.00 0.00 37 1013.2
20260508183059 27 360 12.9 24.1 0.00 0.00 0.00 37 1013.5
20260508181608 27 360 14.5 24.1 0.00 0.00 0.00 39 1013.7
20260508180105 26 360 6.4 22.5 0.00 0.00 0.00 41 1013.9
20260508174602 26 360 16.1 20.9 0.00 0.00 0.00 42 1014.2
20260508173047 25 360 14.5 22.5 0.00 0.00 0.00 43 1014.4
20260508171543 25 360 17.7 22.5 0.00 0.00 0.00 45 1014.5
20260508170039 24 360 9.7 20.9 0.00 0.00 0.00 47 1014.8
20260508164534 23 360 11.3 24.1 0.00 0.00 0.00 49 1014.9
20260508163037 22 360 9.7 20.9 0.00 0.00 0.00 52 1015.1
20260508161533 22 360 11.3 22.5 0.00 0.00 0.00 51 1015.2
20260508160022 22 360 12.9 17.7 0.00 0.00 0.00 56 1015.4
20260508154519 21 360 9.7 16.1 0.00 0.00 0.00 57 1015.4
20260508153019 21 360 8.0 16.1 0.00 0.00 0.00 59 1015.6
20260508151510 20 360 8.0 14.5 0.00 0.00 0.00 63 1015.6
20260508150007 19 360 3.2 9.7 0.00 0.00 0.00 65 1015.7
20260508144503 18 360 3.2 9.7 0.00 0.00 0.00 69 1015.7